Tracking 25711 objects as of 23-May-2022
HD Live streaming from Space Station
objects crossing your sky now

TITAN 3C TRANSTAGE DEB

Track TITAN 3C TRANSTAGE DEB now!
10-day predictions


NORAD ID: 1680
Int'l Code: 1965-082AT
Perigee: 673.3 km
Apogee: 703.4 km
Inclination: 32.3 °
Period: 98.4 minutes
Semi major axis: 7059 km
RCS: 2.2194 m2 (large)
Launch date: October 15, 1965
Source: United States (US)
Launch site: AIR FORCE EASTERN TEST RANGE (AFETR)

Note: This is SATELLITE DEBRIS
aabbcc
Your satellite tracking list
Your tracking list is empty




NASA's NSSDC Master Catalog

Two Line Element Set (TLE):
1 01680U 65082AT  22142.82522998  .00000562  00000-0  99036-4 0  9996
2 01680  32.2570 336.6379 0021286 142.6802 217.5328 14.63705959995612
Source of the keplerian elements: AFSPC